Theta_e
281 281 281 281 281 281 281 281 282 282 283 283 283 284 284 284 284 285 284 284 283 283
279 279 279 280 280 281 281 281 280 281 282 283 283 283 283 283 283 283 283 283 282 282
278 278 277 277 278 278 279 281 281 281 281 281 282 282 282 282 283 282 283 282 281 282
277 277 275 275 276 276 277 279 280 280 280 280 280 281 281 282 282 282 282 282 281 281
275 274 273 272 273 275 278 279 280 280 280 280 280 281 281 281 281 280 280 278 278 278
272 273 272 272 273 274 275 279 280 280 280 280 280 281 281 280 280 280 278 278 274 274
270 271 272 273 272 273 274 278 279 280 280 280 281 281 277 275 274 274 275 274 273 274
268 268 267 268 269 270 272 277 276 279 280 280 279 276 274 273 273 273 273 274 273 274
265 266 267 268 268 269 270 271 273 278 278 277 275 278 281 282 275 275 275 276 277 276
270 270 271 272 271 270 270 271 271 271 272 272 273 279 281 282 281 278 277 276 277 278
273 272 273 273 272 272 272 272 273 273 273 274 275 280 282 282 280 279 279 278 278 278
272 272 272 272 272 273 273 273 274 275 275 275 276 280 282 282 280 279 279 279 279 279
271 271 271 271 272 273 274 275 275 276 276 276 276 279 281 282 279 278 277 278 278 279
270 269 270 271 271 271 272 273 272 273 274 274 275 276 280 281 280 278 278 277 277 277
Wind_Speed
5 4 4 4 4 4 4 3 3 4 4 4 4 4 4 3 3 4 3 3 3 3
5 5 5 5 4 4 3 3 4 4 4 5 5 5 5 4 5 4 3 4 3 3
5 5 4 3 5 4 4 4 4 5 5 5 5 6 5 5 5 4 4 3 4 6
5 5 4 4 5 4 4 4 5 5 6 6 6 6 6 6 5 5 5 4 6 7
5 5 4 5 5 5 4 5 6 6 6 6 7 6 6 6 4 4 6 6 6 6
5 6 6 5 5 5 5 6 6 7 7 7 7 6 5 4 4 5 8 8 6 5
5 5 5 4 4 5 5 7 7 7 7 7 6 4 4 4 4 6 7 8 6 7
5 4 5 5 4 5 6 7 5 7 6 5 4 4 5 5 6 7 8 7 7 7
5 4 5 5 6 6 6 6 6 7 7 9 6 13 15 13 7 7 8 9 7 7
4 4 4 5 5 6 6 5 7 7 7 9 9 17 18 17 8 8 9 9 8 8
4 5 5 4 4 5 4 6 6 7 8 9 9 17 18 18 10 9 11 11 10 10
5 5 5 6 5 4 4 5 6 6 7 9 10 16 17 15 9 9 11 10 10 10
6 6 6 6 6 4 5 6 5 7 7 9 9 13 16 14 6 9 8 8 10 15
7 7 6 6 6 6 6 6 5 6 6 7 8 10 17 18 9 8 8 8 8 7
Wind_Direction
232 235 239 245 248 249 239 233 238 240 239 231 249 253 248 242 246 242 244 248 257 268
226 227 242 251 250 245 235 230 232 234 237 246 249 248 250 246 250 244 254 255 262 267
236 238 244 231 239 233 234 224 231 240 246 247 248 249 245 246 244 244 249 255 259 249
249 239 228 239 240 231 234 229 239 233 242 243 246 243 241 241 244 250 258 251 253 258
254 237 225 238 240 242 226 231 237 238 239 242 241 241 236 239 239 269 272 264 258 248
247 243 232 237 239 243 245 242 241 238 237 238 239 239 232 240 258 256 257 260 255 255
241 247 247 239 243 246 238 236 234 237 234 236 238 236 240 245 248 251 251 253 246 248
263 258 268 261 241 248 252 236 225 240 239 231 238 247 249 243 243 250 259 253 248 244
271 248 246 244 243 236 238 239 245 232 237 247 241 248 255 253 229 239 246 259 256 244
291 272 254 248 234 236 236 231 232 236 232 241 245 254 255 254 249 237 241 244 252 255
336 317 306 280 253 255 240 233 238 238 232 240 248 252 253 253 249 241 243 239 239 242
323 314 312 308 291 271 253 250 241 242 242 240 252 256 258 255 248 246 247 240 238 236
316 308 301 298 299 292 278 277 263 262 246 246 260 263 267 263 248 247 251 242 244 233
319 311 298 306 304 296 295 291 279 275 270 262 260 266 267 265 255 248 253 247 247 238